Regional Weather Roundup
Issued by NWS Goodland, KS

Current Version | Previous Version | Text Only | Print | Product List | Glossary On
Versions: 1 2 3 4 5 6 7 8 9 10 11 12 13 14 15 16 17 18 19 20 21 22 23 24 25 26 27 28 29 30 31 32 33 34 35 36 37 38 39 40 41 42 43 44 45 46 47 48 49 50
000
ASUS43 KGLD 301308
RWRGLD

GOODLAND FORECAST AREA HOURLY WEATHER ROUNDUP
NATIONAL WEATHER SERVICE GOODLAND KS
700 AM MDT FRI SEP 30 2022

...OFFICIAL OBSERVATIONS...

CITY           SKY/WX    TMP DP  RH WIND       PRES   REMARKS
GOODLAND KS    CLEAR     55  41  59 S5        29.99
HILL CITY KS   CLEAR     60  46  59 S9        30.01
IMPERIAL NEB   MOCLDY    48  45  89 SW6       29.98
MCCOOK NEB     MOCLDY    53  45  74 E12       29.98S
AKRON CO       CLEAR     51  43  74 W9        30.03
BURLINGTON CO  CLEAR     48  36  63 SW6       30.02R
LIMON CO       CLEAR     50  37  61 N5        30.08S
$$

...UNOFFICIAL OBSERVATIONS...

CITY           SKY/WX    TMP DP  RH WIND       PRES   REMARKS
COLBY KS       PTCLDY    58  46  64 S10       29.99S
NORTON KS      FAIR      55  43  62 CALM      30.05R
SHARON SPRINGS   N/A     58  36  44 S12         N/A
YUMA CO        FAIR      48  28  46 CALM      30.01R
$$



USA.gov is the U.S. government's official web portal to all federal, state and local government web resources and services.